Torna al catalogo

STARLINK-11613

AttivoComunicazioniVLEO
NORAD 63136·PAYLOAD·🇺🇸 United States

Lanciato Mar 3, 2025 da Cape Canaveral Space Force Station

Loading…

Prossimi Passaggi (prossime 24 ore)

TLE

AggiornatoSource: CelesTrak SupGP

Epoca: Sep 15, 2026, 02:24 UTC

1 63136C 25043E   26258.10048611 -.00041203  00000+0 -32008-3 0  2582
2 63136  43.0005 189.3414 0001506 273.1606 238.7702 15.70854466    16

Traccia STARLINK-11613 in tempo reale con AllMySat

Download on the App Store